Regional Weather Roundup
Issued by NWS Northern Indiana

Home | Current Version | Previous Version | Graphics & Text | Print | Product List | Glossary On
Versions: 1 2 3 4 5 6 7 8 9 10 11 12 13 14 15 16 17 18 19 20 21 22 23 24 25 26 27 28 29 30 31 32 33 34 35 36 37 38 39 40 41 42 43 44 45 46 47 48 49 50
000
ASUS43 KIWX 141410
RWRIWX

KIWX WEATHER ROUNDUP
NATIONAL WEATHER SERVICE NORTHERN INDIANA
900 AM EST THU DEC 14 2017

NOTE: "FAIR" INDICATES FEW OR NO CLOUDS BELOW 12,000 FEET WITH NO
SIGNIFICANT WEATHER AND/OR OBSTRUCTIONS TO VISIBILITY.

* THESE STATIONS ARE NOT UNDER NWS QUALITY CONTROL. THEY ALSO MAY NOT
  REPORT WEATHER SUCH AS PRECIPITATION OR FOG.

INZ001>027-141500-
NORTHERN INDIANA

CITY           SKY/WX    TMP DP  RH WIND       PRES   REMARKS
GARY*          MOCLDY    23  14  68 W9        30.03R WCI  13
VALPARAISO     CLOUDY    21  11  65 E6        30.02R WCI  13
MICHIGAN CITY* FLURRIES  19  10  68 CALM      30.02R
LAPORTE*       CLOUDY    16   9  75 CALM      30.01R
KNOX*          CLOUDY    18  10  73 CALM      30.01R
SOUTH BEND     CLOUDY    15  11  83 E3        30.01R
ELKHART*       CLOUDY     5   1  85 CALM      30.00R
GOSHEN         CLOUDY     7   5  91 SW5       30.00R WCI  -2
MONTICELLO*    CLEAR     20  11  70 E5        30.00R WCI  13
LOGANSPORT*    CLEAR     18  12  79 NE6       30.02R WCI   9
ROCHESTER*     CLOUDY    18  12  79 NE3       30.01R
WARSAW*        CLOUDY    10   9  92 CALM      30.00R
AUBURN*        CLOUDY    12   9  85 NW5       29.99R WCI   4
FORT WAYNE     CLOUDY    15  10  80 NW5       30.00R WCI   8
HUNTINGTON*    CLOUDY    17  12  81 N3        30.00R
PERU/GRISSOM   CLEAR     16  14  91 NE3       30.00R
MARION*        CLEAR     18  15  88 NW3       30.00R

$$
INZ028>050-141500-
CENTRAL INDIANA

CITY           SKY/WX    TMP DP  RH WIND       PRES   REMARKS
LAFAYETTE      CLOUDY    23  13  65 NE7       30.01R WCI  15
KOKOMO*        CLEAR     18  14  84 N5        30.01  WCI  11
MUNCIE*        CLOUDY    21  15  78 N3        29.99R
INDIANAPOLIS   CLOUDY    25  13  60 N9        29.99R WCI  15

$$
MIZ043>046-050>051-056>058-064>065-071>073-077>080-141500-
SOUTHWEST LOWER MICHIGAN

CITY           SKY/WX    TMP DP  RH WIND       PRES   REMARKS
BATTLE CREEK   PTCLDY     2   0  91 CALM      29.97R
BENTON HARBOR  CLOUDY    16   9  74 SE5       30.01R WCI   9
COLDWATER*     CLOUDY     4   2  88 CALM      29.98R
HILLSDALE*     PTCLDY     7   3  85 NW5       29.94R WCI  -2
HOLLAND        CLOUDY    10   6  84 SE3       30.00R
GRAND RAPIDS   PTCLDY     3   1  91 SW3       29.98R
KALAMAZOO      CLOUDY     4   1  88 W5        29.99R WCI  -5
STURGIS*       CLOUDY     2  -2  85 CALM      29.99R
THREE RIVERS*  FAIR       3   0  85 CALM      30.01R FOG

$$
OHZ001>008-015>018-024>025-141500-
NORTHWEST OHIO

CITY           SKY/WX    TMP DP  RH WIND       PRES   REMARKS
WAUSEON*       FAIR      12   9  85 N8        29.97R WCI   1
DEFIANCE       CLOUDY    12   7  80 NW5       30.00R WCI   4
FINDLAY        CLOUDY    17  11  77 NW7       29.96R WCI   8
TOLEDO EXPRESS CLOUDY    13   9  84 NW5       29.98R WCI   5
TOLEDO METCALF CLOUDY    14   8  77 NW8       29.98R WCI   3
LIMA           CLOUDY    18  15  88 N6        29.96R WCI  10

$$
AND FOR LAKE MICHIGAN COASTAL AND OPEN LAKE BUOY OBSERVATIONS

STATION/POSITION TEMP    WIND        PRES    VSBY  WAVE
                 AIR SEA DIR/SP/G                  HT/PER
                 (F)     (DEG/KT/KT) (MB)    (MI)  (FT/S)
CALUMET HARBOR    18     280/  8/ 12 1015.8R
MICHIGAN CITY     20     150/  7/  9   N/A
BURNS HARBOR      24     170/  6/ 15 1016.6
SAINT JOSEPH      17      CALM  /  4 1017.3

$$
&&




USA.gov is the U.S. government's official web portal to all federal, state and local government web resources and services.